When you browse on this site, cookies collect data to enhance your experience and personalize the content and advertising you see.
Visit our Privacy Policy to learn more. By continuing to use the site, you agree to this use of cookies and data.
  • In Slovakia
  • List of Countries
  • For 7 days
  • Water Temperature
  • Weather Map
  • Weather Widgets
  • user-avatar
    Login

    Hourly Weather Bansko

    Today, 25 August, Sunday

    Time Temperature Precipitation Wind Pressure Humidity
    00:00 +23°C° 0 mm 1 mps 723 mmHg 69%
    01:00 +22°C° 0 mm 1 mps 723 mmHg 70%
    02:00 +22°C° 0 mm 1 mps 723 mmHg 67%
    03:00 +21°C° 0 mm 1 mps 723 mmHg 69%
    04:00 +21°C° 0 mm 1 mps 723 mmHg 71%
    05:00 +21°C° 0 mm 1 mps 723 mmHg 73%
    06:00 +22°C° 0 mm 1 mps 723 mmHg 67%
    07:00 +24°C° 0 mm 1 mps 724 mmHg 62%
    08:00 +26°C° 0 mm 1 mps 724 mmHg 57%
    09:00 +28°C° 0 mm 1 mps 724 mmHg 51%
    10:00 +30°C° 0 mm 2 mps 724 mmHg 45%
    11:00 +32°C° 0 mm 2 mps 724 mmHg 38%
    12:00 +34°C° 0.1 mm 2 mps 723 mmHg 36%
    13:00 +35°C° 0.1 mm 2 mps 723 mmHg 33%
    14:00 +35°C° 0 mm 1 mps 724 mmHg 30%
    15:00 +35°C° 0.3 mm 2 mps 723 mmHg 35%
    16:00 +32°C° 0.3 mm 2 mps 722 mmHg 40%
    17:00 +30°C° 0.3 mm 3 mps 721 mmHg 45%
    18:00 +28°C° 0.9 mm 3 mps 721 mmHg 57%
    19:00 +25°C° 0.9 mm 2 mps 722 mmHg 69%
    20:00 +21°C° 0.9 mm 2 mps 722 mmHg 80%
    21:00 +21°C° 0.2 mm 2 mps 722 mmHg 78%
    22:00 +22°C° 0.2 mm 1 mps 722 mmHg 76%
    23:00 +22°C° 0.2 mm 1 mps 722 mmHg 74%

    Tomorrow, 26 August, Monday

    Time Temperature Precipitation Wind Pressure Humidity
    00:00 +22°C° 0 mm 1 mps 723 mmHg 73%
    01:00 +22°C° 0 mm 1 mps 723 mmHg 73%
    02:00 +21°C° 0 mm 1 mps 723 mmHg 72%
    03:00 +21°C° 0 mm 1 mps 723 mmHg 73%
    04:00 +21°C° 0 mm 1 mps 723 mmHg 73%
    05:00 +21°C° 0 mm 1 mps 723 mmHg 74%
    06:00 +22°C° 0 mm 1 mps 723 mmHg 69%
    07:00 +24°C° 0 mm 1 mps 724 mmHg 65%
    08:00 +25°C° 0 mm 1 mps 724 mmHg 60%
    09:00 +28°C° 0 mm 1 mps 724 mmHg 51%
    10:00 +30°C° 0 mm 1 mps 724 mmHg 42%
    11:00 +33°C° 0 mm 1 mps 725 mmHg 32%
    12:00 +33°C° 0.1 mm 1 mps 724 mmHg 32%
    13:00 +34°C° 0.1 mm 2 mps 724 mmHg 33%
    14:00 +34°C° 0.1 mm 2 mps 723 mmHg 33%
    15:00 +31°C° 0.3 mm 2 mps 723 mmHg 39%
    16:00 +29°C° 0.3 mm 2 mps 723 mmHg 46%
    17:00 +28°C° 0.3 mm 3 mps 722 mmHg 52%
    18:00 +26°C° 0.1 mm 2 mps 722 mmHg 57%
    19:00 +25°C° 0.1 mm 2 mps 723 mmHg 61%
    20:00 +23°C° 0.1 mm 1 mps 723 mmHg 65%
    21:00 +23°C° 0 mm 1 mps 723 mmHg 66%
    22:00 +22°C° 0 mm 1 mps 723 mmHg 67%
    23:00 +22°C° 0 mm 1 mps 723 mmHg 68%

    Day after tomorrow, 27 August, Tuesday

    Time Temperature Precipitation Wind Pressure Humidity
    00:00 +22°C° 0 mm 1 mps 723 mmHg 69%
    01:00 +21°C° 0 mm 1 mps 723 mmHg 70%
    02:00 +21°C° 0 mm 1 mps 723 mmHg 70%
    03:00 +21°C° 0 mm 1 mps 723 mmHg 70%
    04:00 +21°C° 0 mm 1 mps 723 mmHg 70%
    05:00 +21°C° 0 mm 1 mps 723 mmHg 70%
    06:00 +22°C° 0 mm 1 mps 723 mmHg 64%
    07:00 +24°C° 0 mm 1 mps 724 mmHg 59%
    08:00 +25°C° 0 mm 1 mps 724 mmHg 53%
    09:00 +28°C° 0 mm 1 mps 724 mmHg 46%
    10:00 +30°C° 0 mm 1 mps 724 mmHg 39%
    11:00 +32°C° 0 mm 2 mps 724 mmHg 32%
    12:00 +32°C° 0 mm 2 mps 724 mmHg 30%
    13:00 +34°C° 0 mm 2 mps 724 mmHg 29%
    14:00 +34°C° 0 mm 2 mps 723 mmHg 27%
    15:00 +34°C° 0 mm 2 mps 723 mmHg 27%
    16:00 +34°C° 0 mm 3 mps 723 mmHg 26%
    17:00 +33°C° 0 mm 3 mps 722 mmHg 26%
    18:00 +30°C° 0 mm 2 mps 722 mmHg 32%
    19:00 +27°C° 0 mm 2 mps 722 mmHg 38%
    20:00 +25°C° 0 mm 2 mps 722 mmHg 43%
    21:00 +24°C° 0 mm 2 mps 723 mmHg 45%
    22:00 +23°C° 0 mm 1 mps 723 mmHg 48%
    23:00 +23°C° 0 mm 1 mps 723 mmHg 50%

    28 August, Wednesday

    Time Temperature Precipitation Wind Pressure Humidity
    00:00 +22°C° 0 mm 1 mps 723 mmHg 52%
    01:00 +21°C° 0 mm 1 mps 723 mmHg 54%
    02:00 +21°C° 0 mm 1 mps 723 mmHg 57%
    03:00 +20°C° 0 mm 1 mps 723 mmHg 58%
    04:00 +20°C° 0 mm 1 mps 723 mmHg 59%
    05:00 +20°C° 0 mm 1 mps 723 mmHg 61%
    06:00 +21°C° 0 mm 1 mps 723 mmHg 57%
    07:00 +23°C° 0 mm 1 mps 723 mmHg 53%
    08:00 +25°C° 0 mm 1 mps 723 mmHg 49%
    09:00 +27°C° 0 mm 2 mps 723 mmHg 43%
    10:00 +29°C° 0 mm 2 mps 724 mmHg 37%
    11:00 +31°C° 0 mm 2 mps 724 mmHg 32%
    12:00 +31°C° 0 mm 2 mps 723 mmHg 29%
    13:00 +32°C° 0 mm 2 mps 723 mmHg 26%
    14:00 +34°C° 0 mm 2 mps 723 mmHg 23%
    15:00 +34°C° 0 mm 2 mps 722 mmHg 23%
    16:00 +32°C° 0 mm 2 mps 722 mmHg 24%
    17:00 +32°C° 0 mm 2 mps 721 mmHg 24%
    18:00 +29°C° 0 mm 2 mps 721 mmHg 28%
    19:00 +26°C° 0 mm 2 mps 721 mmHg 33%
    20:00 +24°C° 0 mm 2 mps 721 mmHg 38%
    21:00 +23°C° 0 mm 2 mps 721 mmHg 39%
    22:00 +22°C° 0 mm 1 mps 722 mmHg 41%
    23:00 +21°C° 0 mm 1 mps 722 mmHg 42%

    29 August, Thursday

    Time Temperature Precipitation Wind Pressure Humidity
    00:00 +21°C° 0 mm 1 mps 722 mmHg 44%
    01:00 +20°C° 0 mm 1 mps 722 mmHg 46%
    02:00 +20°C° 0 mm 1 mps 722 mmHg 47%
    03:00 +19°C° 0 mm 1 mps 722 mmHg 48%
    04:00 +19°C° 0 mm 1 mps 722 mmHg 49%
    05:00 +19°C° 0 mm 1 mps 722 mmHg 51%
    06:00 +20°C° 0 mm 1 mps 722 mmHg 47%
    07:00 +22°C° 0 mm 1 mps 722 mmHg 43%
    08:00 +24°C° 0 mm 1 mps 722 mmHg 39%
    09:00 +26°C° 0 mm 2 mps 722 mmHg 35%
    10:00 +28°C° 0 mm 2 mps 722 mmHg 30%
    11:00 +30°C° 0 mm 2 mps 722 mmHg 25%
    12:00 +31°C° 0 mm 2 mps 722 mmHg 23%
    13:00 +32°C° 0 mm 2 mps 722 mmHg 21%
    14:00 +34°C° 0 mm 2 mps 721 mmHg 19%
    15:00 +34°C° 0 mm 3 mps 721 mmHg 20%
    16:00 +34°C° 0 mm 3 mps 721 mmHg 20%
    17:00 +33°C° 0 mm 3 mps 720 mmHg 21%
    18:00 +29°C° 0 mm 2 mps 720 mmHg 26%
    19:00 +26°C° 0 mm 2 mps 720 mmHg 32%
    20:00 +23°C° 0 mm 2 mps 720 mmHg 38%
    21:00 +21°C° 0 mm 2 mps 721 mmHg 39%
    22:00 +21°C° 0 mm 1 mps 721 mmHg 40%
    23:00 +20°C° 0 mm 1 mps 721 mmHg 40%

    30 August, Friday

    Time Temperature Precipitation Wind Pressure Humidity
    00:00 +20°C° 0 mm 1 mps 721 mmHg 42%
    01:00 +20°C° 0 mm 1 mps 721 mmHg 43%
    02:00 +19°C° 0 mm 1 mps 721 mmHg 44%
    03:00 +19°C° 0 mm 1 mps 721 mmHg 45%
    04:00 +18°C° 0 mm 1 mps 721 mmHg 47%
    05:00 +18°C° 0 mm 1 mps 721 mmHg 48%
    06:00 +20°C° 0 mm 1 mps 722 mmHg 44%
    07:00 +22°C° 0 mm 1 mps 722 mmHg 41%
    08:00 +24°C° 0 mm 1 mps 722 mmHg 37%
    09:00 +26°C° 0 mm 1 mps 723 mmHg 33%
    10:00 +28°C° 0 mm 1 mps 723 mmHg 30%
    11:00 +30°C° 0 mm 2 mps 723 mmHg 26%
    12:00 +31°C° 0 mm 2 mps 723 mmHg 26%
    13:00 +31°C° 0 mm 2 mps 722 mmHg 25%
    14:00 +32°C° 0 mm 2 mps 722 mmHg 25%
    15:00 +33°C° 0 mm 3 mps 722 mmHg 26%
    16:00 +31°C° 0 mm 3 mps 721 mmHg 28%
    17:00 +31°C° 0 mm 3 mps 721 mmHg 29%
    18:00 +28°C° 0 mm 3 mps 721 mmHg 36%
    19:00 +26°C° 0 mm 3 mps 721 mmHg 43%
    20:00 +23°C° 0 mm 2 mps 721 mmHg 49%
    21:00 +21°C° 0 mm 2 mps 722 mmHg 52%
    22:00 +20°C° 0 mm 2 mps 722 mmHg 54%
    23:00 +20°C° 0 mm 1 mps 722 mmHg 57%
    Show more